owner,sensor,date,latitude,longitude,vertical_datum,wind_speed,wind_to_direction,wind_speed_of_gust,qcFlag 
WAVCIS,ioos:station:WAVCIS:CSI09:1,2008-03-01T00:00:00Z,29.1015,-89.9782,0.0,8.34,130.0,,'11111222,11111222,99999999' 
WAVCIS,ioos:station:WAVCIS:CSI09:1,2008-03-01T01:00:00Z,29.1015,-89.9782,0.0,7.33,137.0,,'11111222,11111222,99999999' 
WAVCIS,ioos:station:WAVCIS:CSI09:1,2008-03-01T02:00:00Z,29.1015,-89.9782,0.0,7.27,135.0,,'11111222,11111222,99999999' 
WAVCIS,ioos:station:WAVCIS:CSI09:1,2008-03-01T03:00:00Z,29.1015,-89.9782,0.0,5.464,132.0,,'11111222,11111222,99999999' 
WAVCIS,ioos:station:WAVCIS:CSI09:1,2008-03-01T04:00:00Z,29.1015,-89.9782,0.0,4.233,128.0,,'11111222,11111222,99999999' 
WAVCIS,ioos:station:WAVCIS:CSI09:1,2008-03-01T05:00:00Z,29.1015,-89.9782,0.0,4.484,113.0,,'11111222,11111222,99999999' 
WAVCIS,ioos:station:WAVCIS:CSI09:1,2008-03-01T06:00:00Z,29.1015,-89.9782,0.0,4.096,107.0,,'11111222,11111222,99999999' 
WAVCIS,ioos:station:WAVCIS:CSI09:1,2008-03-01T07:00:00Z,29.1015,-89.9782,0.0,4.157,128.0,,'11111222,11111222,99999999' 
WAVCIS,ioos:station:WAVCIS:CSI09:1,2008-03-01T08:00:00Z,29.1015,-89.9782,0.0,3.693,130.0,,'11111222,11111222,99999999' 
WAVCIS,ioos:station:WAVCIS:CSI09:1,2008-03-01T09:00:00Z,29.1015,-89.9782,0.0,2.388,119.0,,'11111222,11111222,99999999' 
WAVCIS,ioos:station:WAVCIS:CSI09:1,2008-03-01T10:00:00Z,29.1015,-89.9782,0.0,3.515,112.0,,'11111222,11111222,99999999' 
WAVCIS,ioos:station:WAVCIS:CSI09:1,2008-03-01T11:00:00Z,29.1015,-89.9782,0.0,3.264,63.0,,'11111222,11111222,99999999' 
WAVCIS,ioos:station:WAVCIS:CSI09:1,2008-03-01T12:00:00Z,29.1015,-89.9782,0.0,2.642,97.0,,'11111222,11111222,99999999' 
WAVCIS,ioos:station:WAVCIS:CSI09:1,2008-03-01T13:00:00Z,29.1015,-89.9782,0.0,3.861,123.0,,'11111222,11111222,99999999' 
WAVCIS,ioos:station:WAVCIS:CSI09:1,2008-03-01T14:00:00Z,29.1015,-89.9782,0.0,2.446,108.0,,'11111222,11111222,99999999' 
WAVCIS,ioos:station:WAVCIS:CSI09:1,2008-03-01T15:00:00Z,29.1015,-89.9782,0.0,2.4,74.0,,'11111222,11111222,99999999' 
WAVCIS,ioos:station:WAVCIS:CSI09:1,2008-03-01T16:00:00Z,29.1015,-89.9782,0.0,2.522,85.0,,'11111222,11111222,99999999' 
WAVCIS,ioos:station:WAVCIS:CSI09:1,2008-03-01T17:00:00Z,29.1015,-89.9782,0.0,1.97,91.0,,'11111222,11111222,99999999' 
WAVCIS,ioos:station:WAVCIS:CSI09:1,2008-03-01T18:00:00Z,29.1015,-89.9782,0.0,3.036,81.0,,'11111222,11111222,99999999' 
WAVCIS,ioos:station:WAVCIS:CSI09:1,2008-03-01T19:00:00Z,29.1015,-89.9782,0.0,2.43,103.0,,'11111222,11111222,99999999' 
WAVCIS,ioos:station:WAVCIS:CSI09:1,2008-03-01T20:00:00Z,29.1015,-89.9782,0.0,2.093,103.0,,'11111222,11111222,99999999' 
WAVCIS,ioos:station:WAVCIS:CSI09:1,2008-03-01T21:00:00Z,29.1015,-89.9782,0.0,2.315,95.0,,'11111222,11111222,99999999' 
WAVCIS,ioos:station:WAVCIS:CSI09:1,2008-03-01T22:00:00Z,29.1015,-89.9782,0.0,4.035,114.0,,'11111222,11111222,99999999' 
WAVCIS,ioos:station:WAVCIS:CSI09:1,2008-03-01T23:00:00Z,29.1015,-89.9782,0.0,4.601,111.0,,'11111222,11111222,99999999' 
WAVCIS,ioos:station:WAVCIS:CSI09:1,2008-03-02T00:00:00Z,29.1015,-89.9782,0.0,4.84,109.0,,'11111222,11111222,99999999' 
WAVCIS,ioos:station:WAVCIS:CSI09:1,2008-03-02T01:00:00Z,29.1015,-89.9782,0.0,4.644,96.0,,'11111222,11111222,99999999' 
WAVCIS,ioos:station:WAVCIS:CSI09:1,2008-03-02T02:00:00Z,29.1015,-89.9782,0.0,5.402,92.0,,'11111222,11111222,99999999' 
WAVCIS,ioos:station:WAVCIS:CSI09:1,2008-03-02T03:00:00Z,29.1015,-89.9782,0.0,5.251,103.0,,'11111222,11111222,99999999' 
WAVCIS,ioos:station:WAVCIS:CSI09:1,2008-03-02T04:00:00Z,29.1015,-89.9782,0.0,5.568,111.0,,'11111222,11111222,99999999' 
WAVCIS,ioos:station:WAVCIS:CSI09:1,2008-03-02T05:00:00Z,29.1015,-89.9782,0.0,5.466,112.0,,'11111222,11111222,99999999' 
WAVCIS,ioos:station:WAVCIS:CSI09:1,2008-03-02T06:00:00Z,29.1015,-89.9782,0.0,5.266,115.0,,'11111222,11111222,99999999' 
WAVCIS,ioos:station:WAVCIS:CSI09:1,2008-03-02T07:00:00Z,29.1015,-89.9782,0.0,5.755,129.0,,'11111222,11111222,99999999' 
WAVCIS,ioos:station:WAVCIS:CSI09:1,2008-03-02T08:00:00Z,29.1015,-89.9782,0.0,5.537,132.0,,'11111222,11111222,99999999' 
WAVCIS,ioos:station:WAVCIS:CSI09:1,2008-03-02T09:00:00Z,29.1015,-89.9782,0.0,6.435,119.0,,'11111222,11111222,99999999' 
WAVCIS,ioos:station:WAVCIS:CSI09:1,2008-03-02T10:00:00Z,29.1015,-89.9782,0.0,6.536,129.0,,'11111222,11111222,99999999' 
WAVCIS,ioos:station:WAVCIS:CSI09:1,2008-03-02T11:00:00Z,29.1015,-89.9782,0.0,6.681,126.0,,'11111222,11111222,99999999' 
WAVCIS,ioos:station:WAVCIS:CSI09:1,2008-03-02T12:00:00Z,29.1015,-89.9782,0.0,6.368,128.0,,'11111222,11111222,99999999' 
WAVCIS,ioos:station:WAVCIS:CSI09:1,2008-03-02T13:00:00Z,29.1015,-89.9782,0.0,6.002,136.0,,'11111222,11111222,99999999' 
WAVCIS,ioos:station:WAVCIS:CSI09:1,2008-03-02T14:00:00Z,29.1015,-89.9782,0.0,5.846,128.0,,'11111222,11111222,99999999' 
WAVCIS,ioos:station:WAVCIS:CSI09:1,2008-03-02T15:00:00Z,29.1015,-89.9782,0.0,6.337,123.0,,'11111222,11111222,99999999' 
WAVCIS,ioos:station:WAVCIS:CSI09:1,2008-03-02T16:00:00Z,29.1015,-89.9782,0.0,6.525,123.0,,'11111222,11111222,99999999' 
WAVCIS,ioos:station:WAVCIS:CSI09:1,2008-03-02T17:00:00Z,29.1015,-89.9782,0.0,6.127,115.0,,'11111222,11111222,99999999' 
WAVCIS,ioos:station:WAVCIS:CSI09:1,2008-03-02T18:00:00Z,29.1015,-89.9782,0.0,5.499,108.0,,'11111222,11111222,99999999' 
WAVCIS,ioos:station:WAVCIS:CSI09:1,2008-03-02T19:00:00Z,29.1015,-89.9782,0.0,6.392,115.0,,'11111222,11111222,99999999' 
WAVCIS,ioos:station:WAVCIS:CSI09:1,2008-03-02T20:00:00Z,29.1015,-89.9782,0.0,6.575,112.0,,'11111222,11111222,99999999' 
WAVCIS,ioos:station:WAVCIS:CSI09:1,2008-03-02T21:00:00Z,29.1015,-89.9782,0.0,7.38,113.0,,'11111222,11111222,99999999' 
WAVCIS,ioos:station:WAVCIS:CSI09:1,2008-03-02T22:00:00Z,29.1015,-89.9782,0.0,7.21,117.0,,'11111222,11111222,99999999' 
WAVCIS,ioos:station:WAVCIS:CSI09:1,2008-03-02T23:00:00Z,29.1015,-89.9782,0.0,6.592,123.0,,'11111222,11111222,99999999' 
WAVCIS,ioos:station:WAVCIS:CSI09:1,2008-03-03T00:00:00Z,29.1015,-89.9782,0.0,6.56,127.0,,'11111222,11111222,99999999' 
WAVCIS,ioos:station:WAVCIS:CSI09:1,2008-03-03T01:00:00Z,29.1015,-89.9782,0.0,7.96,121.0,,'11111222,11111222,99999999' 
WAVCIS,ioos:station:WAVCIS:CSI09:1,2008-03-03T02:00:00Z,29.1015,-89.9782,0.0,8.45,129.0,,'11111222,11111222,99999999' 
WAVCIS,ioos:station:WAVCIS:CSI09:1,2008-03-03T03:00:00Z,29.1015,-89.9782,0.0,8.48,132.0,,'11111222,11111222,99999999' 
WAVCIS,ioos:station:WAVCIS:CSI09:1,2008-03-03T04:00:00Z,29.1015,-89.9782,0.0,9.63,130.0,,'11111222,11111222,99999999' 
WAVCIS,ioos:station:WAVCIS:CSI09:1,2008-03-03T05:00:00Z,29.1015,-89.9782,0.0,8.46,133.0,,'11111222,11111222,99999999' 
WAVCIS,ioos:station:WAVCIS:CSI09:1,2008-03-03T06:00:00Z,29.1015,-89.9782,0.0,8.49,137.0,,'11111222,11111222,99999999' 
WAVCIS,ioos:station:WAVCIS:CSI09:1,2008-03-03T07:00:00Z,29.1015,-89.9782,0.0,8.78,135.0,,'11111222,11111222,99999999' 
WAVCIS,ioos:station:WAVCIS:CSI09:1,2008-03-03T08:00:00Z,29.1015,-89.9782,0.0,9.54,132.0,,'11111222,11111222,99999999' 
WAVCIS,ioos:station:WAVCIS:CSI09:1,2008-03-03T09:00:00Z,29.1015,-89.9782,0.0,8.7,134.0,,'11111222,11111222,99999999' 
WAVCIS,ioos:station:WAVCIS:CSI09:1,2008-03-03T10:00:00Z,29.1015,-89.9782,0.0,9.99,134.0,,'11111222,11111222,99999999' 
WAVCIS,ioos:station:WAVCIS:CSI09:1,2008-03-03T11:00:00Z,29.1015,-89.9782,0.0,9.02,135.0,,'11111222,11111222,99999999' 
WAVCIS,ioos:station:WAVCIS:CSI09:1,2008-03-03T12:00:00Z,29.1015,-89.9782,0.0,10.8,135.0,,'11111222,11111222,99999999' 
WAVCIS,ioos:station:WAVCIS:CSI09:1,2008-03-03T13:00:00Z,29.1015,-89.9782,0.0,10.09,133.0,,'11111222,11111222,99999999' 
WAVCIS,ioos:station:WAVCIS:CSI09:1,2008-03-03T14:00:00Z,29.1015,-89.9782,0.0,8.92,132.0,,'11111222,11111222,99999999' 
WAVCIS,ioos:station:WAVCIS:CSI09:1,2008-03-03T15:00:00Z,29.1015,-89.9782,0.0,8.49,129.0,,'11111222,11111222,99999999' 
WAVCIS,ioos:station:WAVCIS:CSI09:1,2008-03-03T16:00:00Z,29.1015,-89.9782,0.0,6.75,124.0,,'11111222,11111222,99999999' 
WAVCIS,ioos:station:WAVCIS:CSI09:1,2008-03-03T17:00:00Z,29.1015,-89.9782,0.0,8.33,129.0,,'11111222,11111222,99999999' 
WAVCIS,ioos:station:WAVCIS:CSI09:1,2008-03-03T18:00:00Z,29.1015,-89.9782,0.0,9.02,137.0,,'11111222,11111222,99999999' 
WAVCIS,ioos:station:WAVCIS:CSI09:1,2008-03-03T19:00:00Z,29.1015,-89.9782,0.0,8.98,137.0,,'11111222,11111222,99999999' 
WAVCIS,ioos:station:WAVCIS:CSI09:1,2008-03-03T20:00:00Z,29.1015,-89.9782,0.0,9.12,136.0,,'11111222,11111222,99999999' 
WAVCIS,ioos:station:WAVCIS:CSI09:1,2008-03-03T21:00:00Z,29.1015,-89.9782,0.0,8.71,138.0,,'11111222,11111222,99999999' 
WAVCIS,ioos:station:WAVCIS:CSI09:1,2008-03-03T22:00:00Z,29.1015,-89.9782,0.0,7.85,140.0,,'11111222,11111222,99999999' 
WAVCIS,ioos:station:WAVCIS:CSI09:1,2008-03-03T23:00:00Z,29.1015,-89.9782,0.0,7.75,153.0,,'11111222,11111222,99999999' 
WAVCIS,ioos:station:WAVCIS:CSI09:1,2008-03-04T00:00:00Z,29.1015,-89.9782,0.0,8.19,157.0,,'11111222,11111222,99999999' 
WAVCIS,ioos:station:WAVCIS:CSI09:1,2008-03-04T01:00:00Z,29.1015,-89.9782,0.0,8.6,161.0,,'11111222,11111222,99999999' 
WAVCIS,ioos:station:WAVCIS:CSI09:1,2008-03-04T02:00:00Z,29.1015,-89.9782,0.0,9.12,173.0,,'11111222,11111222,99999999' 
WAVCIS,ioos:station:WAVCIS:CSI09:1,2008-03-04T03:00:00Z,29.1015,-89.9782,0.0,10.37,176.0,,'11111222,11111222,99999999' 
WAVCIS,ioos:station:WAVCIS:CSI09:1,2008-03-04T04:00:00Z,29.1015,-89.9782,0.0,12.07,177.0,,'11111222,11111222,99999999' 
WAVCIS,ioos:station:WAVCIS:CSI09:1,2008-03-04T05:00:00Z,29.1015,-89.9782,0.0,12.67,174.0,,'11111222,11111222,99999999' 
WAVCIS,ioos:station:WAVCIS:CSI09:1,2008-03-04T06:00:00Z,29.1015,-89.9782,0.0,13.09,250.0,,'11111222,11111222,99999999' 
WAVCIS,ioos:station:WAVCIS:CSI09:1,2008-03-04T07:00:00Z,29.1015,-89.9782,0.0,15.0,282.0,,'11111222,11111222,99999999' 
WAVCIS,ioos:station:WAVCIS:CSI09:1,2008-03-04T08:00:00Z,29.1015,-89.9782,0.0,12.9,278.0,,'11111222,11111222,99999999' 
WAVCIS,ioos:station:WAVCIS:CSI09:1,2008-03-04T09:00:00Z,29.1015,-89.9782,0.0,12.75,274.0,,'11111222,11111222,99999999' 
WAVCIS,ioos:station:WAVCIS:CSI09:1,2008-03-04T10:00:00Z,29.1015,-89.9782,0.0,14.58,280.0,,'11111222,11111222,99999999' 
WAVCIS,ioos:station:WAVCIS:CSI09:1,2008-03-04T11:00:00Z,29.1015,-89.9782,0.0,15.17,280.0,,'11111222,11111222,99999999' 
WAVCIS,ioos:station:WAVCIS:CSI09:1,2008-03-04T12:00:00Z,29.1015,-89.9782,0.0,15.8,282.0,,'11111222,11111222,99999999' 
WAVCIS,ioos:station:WAVCIS:CSI09:1,2008-03-04T13:00:00Z,29.1015,-89.9782,0.0,16.2,284.0,,'11111222,11111222,99999999' 
WAVCIS,ioos:station:WAVCIS:CSI09:1,2008-03-04T14:00:00Z,29.1015,-89.9782,0.0,13.07,290.0,,'11111222,11111222,99999999' 
WAVCIS,ioos:station:WAVCIS:CSI09:1,2008-03-04T15:00:00Z,29.1015,-89.9782,0.0,13.88,277.0,,'11111222,11111222,99999999' 
WAVCIS,ioos:station:WAVCIS:CSI09:1,2008-03-04T16:00:00Z,29.1015,-89.9782,0.0,14.12,282.0,,'11111222,11111222,99999999' 
WAVCIS,ioos:station:WAVCIS:CSI09:1,2008-03-04T17:00:00Z,29.1015,-89.9782,0.0,13.34,285.0,,'11111222,11111222,99999999' 
WAVCIS,ioos:station:WAVCIS:CSI09:1,2008-03-04T18:00:00Z,29.1015,-89.9782,0.0,13.06,282.0,,'11111222,11111222,99999999' 
WAVCIS,ioos:station:WAVCIS:CSI09:1,2008-03-04T19:00:00Z,29.1015,-89.9782,0.0,11.85,284.0,,'11111222,11111222,99999999' 
WAVCIS,ioos:station:WAVCIS:CSI09:1,2008-03-04T20:00:00Z,29.1015,-89.9782,0.0,11.42,286.0,,'11111222,11111222,99999999' 
WAVCIS,ioos:station:WAVCIS:CSI09:1,2008-03-04T21:00:00Z,29.1015,-89.9782,0.0,10.14,292.0,,'11111222,11111222,99999999' 
WAVCIS,ioos:station:WAVCIS:CSI09:1,2008-03-04T22:00:00Z,29.1015,-89.9782,0.0,9.27,290.0,,'11111222,11111222,99999999' 
WAVCIS,ioos:station:WAVCIS:CSI09:1,2008-03-04T23:00:00Z,29.1015,-89.9782,0.0,8.55,287.0,,'11111222,11111222,99999999' 
WAVCIS,ioos:station:WAVCIS:CSI09:1,2008-03-05T00:00:00Z,29.1015,-89.9782,0.0,8.1,297.0,,'11111222,11111222,99999999' 
WAVCIS,ioos:station:WAVCIS:CSI09:1,2008-03-05T01:00:00Z,29.1015,-89.9782,0.0,6.89,306.0,,'11111222,11111222,99999999' 
WAVCIS,ioos:station:WAVCIS:CSI09:1,2008-03-05T02:00:00Z,29.1015,-89.9782,0.0,7.16,314.0,,'11111222,11111222,99999999' 
WAVCIS,ioos:station:WAVCIS:CSI09:1,2008-03-05T03:00:00Z,29.1015,-89.9782,0.0,7.32,324.0,,'11111222,11111222,99999999' 
WAVCIS,ioos:station:WAVCIS:CSI09:1,2008-03-05T05:00:00Z,29.1015,-89.9782,0.0,5.844,335.0,,'11111222,11111222,99999999' 
WAVCIS,ioos:station:WAVCIS:CSI09:1,2008-03-05T06:00:00Z,29.1015,-89.9782,0.0,5.065,346.0,,'11111222,11111222,99999999' 
WAVCIS,ioos:station:WAVCIS:CSI09:1,2008-03-05T07:00:00Z,29.1015,-89.9782,0.0,5.269,8.0,,'11111222,11111222,99999999' 
WAVCIS,ioos:station:WAVCIS:CSI09:1,2008-03-05T08:00:00Z,29.1015,-89.9782,0.0,1.448,9.0,,'11111222,11111222,99999999' 
WAVCIS,ioos:station:WAVCIS:CSI09:1,2008-03-05T10:00:00Z,29.1015,-89.9782,0.0,0.923,31.0,,'11111222,11111222,99999999' 
WAVCIS,ioos:station:WAVCIS:CSI09:1,2008-03-05T11:00:00Z,29.1015,-89.9782,0.0,1.066,12.0,,'11111222,11111222,99999999' 
WAVCIS,ioos:station:WAVCIS:CSI09:1,2008-03-05T13:00:00Z,29.1015,-89.9782,0.0,4.37,26.0,,'11111222,11111222,99999999' 
WAVCIS,ioos:station:WAVCIS:CSI09:1,2008-03-05T14:00:00Z,29.1015,-89.9782,0.0,3.258,9.0,,'11111222,11111222,99999999' 
WAVCIS,ioos:station:WAVCIS:CSI09:1,2008-03-05T15:00:00Z,29.1015,-89.9782,0.0,2.283,20.0,,'11111222,11111222,99999999' 
WAVCIS,ioos:station:WAVCIS:CSI09:1,2008-03-05T17:00:00Z,29.1015,-89.9782,0.0,1.985,78.0,,'11111222,11111222,99999999' 
WAVCIS,ioos:station:WAVCIS:CSI09:1,2008-03-05T18:00:00Z,29.1015,-89.9782,0.0,1.836,98.0,,'11111222,11111222,99999999' 
WAVCIS,ioos:station:WAVCIS:CSI09:1,2008-03-05T19:00:00Z,29.1015,-89.9782,0.0,0.979,75.0,,'11111222,11111222,99999999' 
WAVCIS,ioos:station:WAVCIS:CSI09:1,2008-03-05T20:00:00Z,29.1015,-89.9782,0.0,3.118,28.0,,'11111222,11111222,99999999' 
WAVCIS,ioos:station:WAVCIS:CSI09:1,2008-03-05T21:00:00Z,29.1015,-89.9782,0.0,1.01,99.0,,'11111222,11111222,99999999' 
WAVCIS,ioos:station:WAVCIS:CSI09:1,2008-03-05T22:00:00Z,29.1015,-89.9782,0.0,1.623,114.0,,'11111222,11111222,99999999' 
WAVCIS,ioos:station:WAVCIS:CSI09:1,2008-03-05T23:00:00Z,29.1015,-89.9782,0.0,1.479,92.0,,'11111222,11111222,99999999' 
WAVCIS,ioos:station:WAVCIS:CSI09:1,2008-03-06T00:00:00Z,29.1015,-89.9782,0.0,2.832,139.0,,'11111222,11111222,99999999' 
WAVCIS,ioos:station:WAVCIS:CSI09:1,2008-03-06T01:00:00Z,29.1015,-89.9782,0.0,2.69,136.0,,'11111222,11111222,99999999' 
WAVCIS,ioos:station:WAVCIS:CSI09:1,2008-03-06T02:00:00Z,29.1015,-89.9782,0.0,2.532,154.0,,'11111222,11111222,99999999' 
WAVCIS,ioos:station:WAVCIS:CSI09:1,2008-03-06T03:00:00Z,29.1015,-89.9782,0.0,2.681,126.0,,'11111222,11111222,99999999' 
WAVCIS,ioos:station:WAVCIS:CSI09:1,2008-03-06T04:00:00Z,29.1015,-89.9782,0.0,2.023,93.0,,'11111222,11111222,99999999' 
WAVCIS,ioos:station:WAVCIS:CSI09:1,2008-03-06T05:00:00Z,29.1015,-89.9782,0.0,2.759,82.0,,'11111222,11111222,99999999' 
WAVCIS,ioos:station:WAVCIS:CSI09:1,2008-03-06T06:00:00Z,29.1015,-89.9782,0.0,2.56,96.0,,'11111222,11111222,99999999' 
WAVCIS,ioos:station:WAVCIS:CSI09:1,2008-03-06T07:00:00Z,29.1015,-89.9782,0.0,3.45,79.0,,'11111222,11111222,99999999' 
WAVCIS,ioos:station:WAVCIS:CSI09:1,2008-03-06T08:00:00Z,29.1015,-89.9782,0.0,4.59,61.0,,'11111222,11111222,99999999' 
WAVCIS,ioos:station:WAVCIS:CSI09:1,2008-03-06T09:00:00Z,29.1015,-89.9782,0.0,5.197,60.0,,'11111222,11111222,99999999' 
WAVCIS,ioos:station:WAVCIS:CSI09:1,2008-03-06T12:00:00Z,29.1015,-89.9782,0.0,6.55,66.0,,'11111222,11111222,99999999' 
WAVCIS,ioos:station:WAVCIS:CSI09:1,2008-03-06T13:00:00Z,29.1015,-89.9782,0.0,6.866,62.0,,'11111222,11111222,99999999' 
WAVCIS,ioos:station:WAVCIS:CSI09:1,2008-03-06T14:00:00Z,29.1015,-89.9782,0.0,7.22,61.0,,'11111222,11111222,99999999' 
WAVCIS,ioos:station:WAVCIS:CSI09:1,2008-03-06T15:00:00Z,29.1015,-89.9782,0.0,7.27,63.0,,'11111222,11111222,99999999' 
WAVCIS,ioos:station:WAVCIS:CSI09:1,2008-03-06T16:00:00Z,29.1015,-89.9782,0.0,6.841,60.0,,'11111222,11111222,99999999' 
WAVCIS,ioos:station:WAVCIS:CSI09:1,2008-03-06T17:00:00Z,29.1015,-89.9782,0.0,8.16,51.0,,'11111222,11111222,99999999' 
WAVCIS,ioos:station:WAVCIS:CSI09:1,2008-03-06T18:00:00Z,29.1015,-89.9782,0.0,8.93,54.0,,'11111222,11111222,99999999' 
WAVCIS,ioos:station:WAVCIS:CSI09:1,2008-03-06T19:00:00Z,29.1015,-89.9782,0.0,8.68,52.0,,'11111222,11111222,99999999' 
WAVCIS,ioos:station:WAVCIS:CSI09:1,2008-03-06T20:00:00Z,29.1015,-89.9782,0.0,9.22,67.0,,'11111222,11111222,99999999' 
WAVCIS,ioos:station:WAVCIS:CSI09:1,2008-03-06T21:00:00Z,29.1015,-89.9782,0.0,9.86,86.0,,'11111222,11111222,99999999' 
WAVCIS,ioos:station:WAVCIS:CSI09:1,2008-03-06T22:00:00Z,29.1015,-89.9782,0.0,8.96,79.0,,'11111222,11111222,99999999' 
WAVCIS,ioos:station:WAVCIS:CSI09:1,2008-03-06T23:00:00Z,29.1015,-89.9782,0.0,9.04,78.0,,'11111222,11111222,99999999' 
WAVCIS,ioos:station:WAVCIS:CSI09:1,2008-03-07T00:00:00Z,29.1015,-89.9782,0.0,9.0,80.0,,'11111222,11111222,99999999' 
WAVCIS,ioos:station:WAVCIS:CSI09:1,2008-03-07T12:00:00Z,29.1015,-89.9782,0.0,6.882,305.0,,'11111222,11111222,99999999' 
WAVCIS,ioos:station:WAVCIS:CSI09:1,2008-03-07T13:00:00Z,29.1015,-89.9782,0.0,7.18,332.0,,'11111222,11111222,99999999' 
WAVCIS,ioos:station:WAVCIS:CSI09:1,2008-03-07T14:00:00Z,29.1015,-89.9782,0.0,10.39,289.0,,'11111222,11111222,99999999' 
WAVCIS,ioos:station:WAVCIS:CSI09:1,2008-03-07T15:00:00Z,29.1015,-89.9782,0.0,9.08,336.0,,'11111222,11111222,99999999' 
WAVCIS,ioos:station:WAVCIS:CSI09:1,2008-03-07T17:00:00Z,29.1015,-89.9782,0.0,8.94,289.0,,'11111222,11111222,99999999' 
WAVCIS,ioos:station:WAVCIS:CSI09:1,2008-03-07T18:00:00Z,29.1015,-89.9782,0.0,8.3,269.0,,'11111222,11111222,99999999' 
WAVCIS,ioos:station:WAVCIS:CSI09:1,2008-03-07T19:00:00Z,29.1015,-89.9782,0.0,15.28,276.0,,'11111222,11111222,99999999' 
WAVCIS,ioos:station:WAVCIS:CSI09:1,2008-03-07T20:00:00Z,29.1015,-89.9782,0.0,14.4,273.0,,'11111222,11111222,99999999' 
WAVCIS,ioos:station:WAVCIS:CSI09:1,2008-03-07T21:00:00Z,29.1015,-89.9782,0.0,13.79,273.0,,'11111222,11111222,99999999' 
WAVCIS,ioos:station:WAVCIS:CSI09:1,2008-03-07T22:00:00Z,29.1015,-89.9782,0.0,14.84,273.0,,'11111222,11111222,99999999' 
WAVCIS,ioos:station:WAVCIS:CSI09:1,2008-03-07T23:00:00Z,29.1015,-89.9782,0.0,15.93,274.0,,'11111222,11111222,99999999' 
WAVCIS,ioos:station:WAVCIS:CSI09:1,2008-03-08T00:00:00Z,29.1015,-89.9782,0.0,16.41,279.0,,'11111222,11111222,99999999' 
WAVCIS,ioos:station:WAVCIS:CSI09:1,2008-03-08T01:00:00Z,29.1015,-89.9782,0.0,16.49,296.0,,'11111222,11111222,99999999' 
WAVCIS,ioos:station:WAVCIS:CSI09:1,2008-03-08T02:00:00Z,29.1015,-89.9782,0.0,15.89,286.0,,'11111222,11111222,99999999' 
WAVCIS,ioos:station:WAVCIS:CSI09:1,2008-03-08T03:00:00Z,29.1015,-89.9782,0.0,14.61,309.0,,'11111222,11111222,99999999' 
WAVCIS,ioos:station:WAVCIS:CSI09:1,2008-03-08T04:00:00Z,29.1015,-89.9782,0.0,15.82,307.0,,'11111222,11111222,99999999' 
WAVCIS,ioos:station:WAVCIS:CSI09:1,2008-03-08T05:00:00Z,29.1015,-89.9782,0.0,15.62,302.0,,'11111222,11111222,99999999' 
WAVCIS,ioos:station:WAVCIS:CSI09:1,2008-03-08T06:00:00Z,29.1015,-89.9782,0.0,16.82,309.0,,'11111222,11111222,99999999' 
WAVCIS,ioos:station:WAVCIS:CSI09:1,2008-03-08T07:00:00Z,29.1015,-89.9782,0.0,16.49,306.0,,'11111222,11111222,99999999' 
WAVCIS,ioos:station:WAVCIS:CSI09:1,2008-03-08T08:00:00Z,29.1015,-89.9782,0.0,14.26,312.0,,'11111222,11111222,99999999' 
WAVCIS,ioos:station:WAVCIS:CSI09:1,2008-03-08T09:00:00Z,29.1015,-89.9782,0.0,11.48,304.0,,'11111222,11111222,99999999' 
WAVCIS,ioos:station:WAVCIS:CSI09:1,2008-03-08T10:00:00Z,29.1015,-89.9782,0.0,10.31,315.0,,'11111222,11111222,99999999' 
WAVCIS,ioos:station:WAVCIS:CSI09:1,2008-03-08T11:00:00Z,29.1015,-89.9782,0.0,8.71,324.0,,'11111222,11111222,99999999' 
WAVCIS,ioos:station:WAVCIS:CSI09:1,2008-03-08T12:00:00Z,29.1015,-89.9782,0.0,8.65,330.0,,'11111222,11111222,99999999' 
WAVCIS,ioos:station:WAVCIS:CSI09:1,2008-03-08T13:00:00Z,29.1015,-89.9782,0.0,6.563,315.0,,'11111222,11111222,99999999' 
WAVCIS,ioos:station:WAVCIS:CSI09:1,2008-03-08T14:00:00Z,29.1015,-89.9782,0.0,5.508,332.0,,'11111222,11111222,99999999' 
WAVCIS,ioos:station:WAVCIS:CSI09:1,2008-03-08T15:00:00Z,29.1015,-89.9782,0.0,3.418,350.0,,'11111222,11111222,99999999' 
WAVCIS,ioos:station:WAVCIS:CSI09:1,2008-03-08T16:00:00Z,29.1015,-89.9782,0.0,1.62,11.0,,'11111222,11111222,99999999' 
WAVCIS,ioos:station:WAVCIS:CSI09:1,2008-03-08T17:00:00Z,29.1015,-89.9782,0.0,1.057,354.0,,'11111222,11111222,99999999' 
WAVCIS,ioos:station:WAVCIS:CSI09:1,2008-03-08T18:00:00Z,29.1015,-89.9782,0.0,1.168,236.0,,'11111222,11111222,99999999' 
WAVCIS,ioos:station:WAVCIS:CSI09:1,2008-03-08T19:00:00Z,29.1015,-89.9782,0.0,0.719,261.0,,'11111222,11111222,99999999' 
WAVCIS,ioos:station:WAVCIS:CSI09:1,2008-03-08T20:00:00Z,29.1015,-89.9782,0.0,1.416,289.0,,'11111222,11111222,99999999' 
WAVCIS,ioos:station:WAVCIS:CSI09:1,2008-03-08T21:00:00Z,29.1015,-89.9782,0.0,0.85,163.0,,'11111222,11111222,99999999' 
WAVCIS,ioos:station:WAVCIS:CSI09:1,2008-03-08T22:00:00Z,29.1015,-89.9782,0.0,2.012,155.0,,'11111222,11111222,99999999' 
WAVCIS,ioos:station:WAVCIS:CSI09:1,2008-03-08T23:00:00Z,29.1015,-89.9782,0.0,1.437,124.0,,'11111222,11111222,99999999' 
WAVCIS,ioos:station:WAVCIS:CSI09:1,2008-03-09T00:00:00Z,29.1015,-89.9782,0.0,1.455,123.0,,'11111222,11111222,99999999' 
WAVCIS,ioos:station:WAVCIS:CSI09:1,2008-03-09T01:00:00Z,29.1015,-89.9782,0.0,2.44,86.0,,'11111222,11111222,99999999' 
WAVCIS,ioos:station:WAVCIS:CSI09:1,2008-03-09T02:00:00Z,29.1015,-89.9782,0.0,3.065,128.0,,'11111222,11111222,99999999' 
WAVCIS,ioos:station:WAVCIS:CSI09:1,2008-03-09T03:00:00Z,29.1015,-89.9782,0.0,3.919,117.0,,'11111222,11111222,99999999' 
WAVCIS,ioos:station:WAVCIS:CSI09:1,2008-03-09T04:00:00Z,29.1015,-89.9782,0.0,4.045,117.0,,'11111222,11111222,99999999' 
WAVCIS,ioos:station:WAVCIS:CSI09:1,2008-03-09T05:00:00Z,29.1015,-89.9782,0.0,3.842,103.0,,'11111222,11111222,99999999' 
WAVCIS,ioos:station:WAVCIS:CSI09:1,2008-03-09T06:00:00Z,29.1015,-89.9782,0.0,4.655,89.0,,'11111222,11111222,99999999' 
WAVCIS,ioos:station:WAVCIS:CSI09:1,2008-03-09T07:00:00Z,29.1015,-89.9782,0.0,5.036,92.0,,'11111222,11111222,99999999' 
WAVCIS,ioos:station:WAVCIS:CSI09:1,2008-03-09T08:00:00Z,29.1015,-89.9782,0.0,5.37,96.0,,'11111222,11111222,99999999' 
WAVCIS,ioos:station:WAVCIS:CSI09:1,2008-03-09T09:00:00Z,29.1015,-89.9782,0.0,5.736,92.0,,'11111222,11111222,99999999' 
WAVCIS,ioos:station:WAVCIS:CSI09:1,2008-03-09T10:00:00Z,29.1015,-89.9782,0.0,6.275,96.0,,'11111222,11111222,99999999' 
WAVCIS,ioos:station:WAVCIS:CSI09:1,2008-03-09T11:00:00Z,29.1015,-89.9782,0.0,7.3,83.0,,'11111222,11111222,99999999' 
WAVCIS,ioos:station:WAVCIS:CSI09:1,2008-03-09T12:00:00Z,29.1015,-89.9782,0.0,8.68,79.0,,'11111222,11111222,99999999' 
WAVCIS,ioos:station:WAVCIS:CSI09:1,2008-03-09T13:00:00Z,29.1015,-89.9782,0.0,8.88,73.0,,'11111222,11111222,99999999' 
WAVCIS,ioos:station:WAVCIS:CSI09:1,2008-03-09T14:00:00Z,29.1015,-89.9782,0.0,9.53,74.0,,'11111222,11111222,99999999' 
WAVCIS,ioos:station:WAVCIS:CSI09:1,2008-03-09T15:00:00Z,29.1015,-89.9782,0.0,9.61,72.0,,'11111222,11111222,99999999' 
WAVCIS,ioos:station:WAVCIS:CSI09:1,2008-03-09T16:00:00Z,29.1015,-89.9782,0.0,9.55,66.0,,'11111222,11111222,99999999' 
WAVCIS,ioos:station:WAVCIS:CSI09:1,2008-03-09T17:00:00Z,29.1015,-89.9782,0.0,9.49,70.0,,'11111222,11111222,99999999' 
WAVCIS,ioos:station:WAVCIS:CSI09:1,2008-03-09T18:00:00Z,29.1015,-89.9782,0.0,9.59,77.0,,'11111222,11111222,99999999' 
WAVCIS,ioos:station:WAVCIS:CSI09:1,2008-03-09T19:00:00Z,29.1015,-89.9782,0.0,8.84,80.0,,'11111222,11111222,99999999' 
WAVCIS,ioos:station:WAVCIS:CSI09:1,2008-03-09T20:00:00Z,29.1015,-89.9782,0.0,8.95,82.0,,'11111222,11111222,99999999' 
WAVCIS,ioos:station:WAVCIS:CSI09:1,2008-03-09T21:00:00Z,29.1015,-89.9782,0.0,8.52,86.0,,'11111222,11111222,99999999' 
WAVCIS,ioos:station:WAVCIS:CSI09:1,2008-03-09T22:00:00Z,29.1015,-89.9782,0.0,9.07,86.0,,'11111222,11111222,99999999' 
WAVCIS,ioos:station:WAVCIS:CSI09:1,2008-03-09T23:00:00Z,29.1015,-89.9782,0.0,9.68,89.0,,'11111222,11111222,99999999' 
WAVCIS,ioos:station:WAVCIS:CSI09:1,2008-03-10T00:00:00Z,29.1015,-89.9782,0.0,8.4,91.0,,'11111222,11111222,99999999' 
WAVCIS,ioos:station:WAVCIS:CSI09:1,2008-03-10T01:00:00Z,29.1015,-89.9782,0.0,8.42,97.0,,'11111222,11111222,99999999' 